This is the latest recevied weather packets stored in our database for station/object DL7AND-2. If no packets are shown the sender has not sent any weather packets the latest 10 day(s).
| Time | Temp. | Humidity | Pressure | Rain* | Wind** | Luminosity | Snow |
|---|---|---|---|---|---|---|---|
| 1778233352 | 13.33° C | 53% | 1020.5 hPa | 0 mm | - | - | - |
| 1778232707 | 13.33° C | 53% | 1020.6 hPa | 0 mm | - | - | - |
| 1778232132 | 13.89° C | 51% | 1020.5 hPa | 0 mm | - | - | - |
| 1778231508 | 13.89° C | 52% | 1020.4 hPa | 0 mm | - | - | - |
| 1778230932 | 13.89° C | 53% | 1020.4 hPa | 0 mm | - | - | - |
| 1778230308 | 13.33° C | 56% | 1020.5 hPa | 0 mm | - | - | - |
| 1778229732 | 12.78° C | 54% | 1020.5 hPa | 0 mm | - | - | - |
| 1778229128 | 12.78° C | 55% | 1020.5 hPa | 0 mm | - | - | - |
| 1778228532 | 12.78° C | 60% | 1020.5 hPa | 0 mm | - | - | - |
| 1778227968 | 12.78° C | 58% | 1020.2 hPa | 0 mm | - | - | - |
| 1778227332 | 12.78° C | 58% | 1020.3 hPa | 0 mm | - | - | - |
| 1778226707 | 12.78° C | 59% | 1020.3 hPa | 0 mm | - | - | - |
| 1778226132 | 12.78° C | 61% | 1020.1 hPa | 0 mm | - | - | - |
| 1778225508 | 12.78° C | 62% | 1020 hPa | 0 mm | - | - | - |
| 1778224932 | 12.78° C | 61% | 1020.1 hPa | 0 mm | - | - | - |
| 1778224368 | 12.78° C | 62% | 1019.9 hPa | 0 mm | - | - | - |
| 1778223732 | 12.78° C | 67% | 1020 hPa | 0 mm | - | - | - |
| 1778223108 | 11.11° C | 72% | 1020 hPa | 0 mm | - | - | - |
| 1778222532 | 10° C | 73% | 1020 hPa | 0 mm | - | - | - |
| 1778221928 | 9.44° C | 73% | 1019.8 hPa | 0 mm | - | - | - |
| 1778221352 | 8.89° C | 74% | 1019.8 hPa | 0 mm | - | - | - |
| 1778220727 | 8.89° C | 75% | 1019.6 hPa | 0 mm | - | - | - |
| 1778220132 | 8.33° C | 75% | 1019.5 hPa | 0 mm | - | - | - |
| 1778219548 | 8.33° C | 76% | 1019.6 hPa | 0 mm | - | - | - |
| 1778218932 | 8.33° C | 76% | 1019.6 hPa | 0 mm | - | - | - |
* Rain latest hour (hover to see other rain measurements)
** Current wind speed in m/s (hover to see current wind gust speed)